Home > Weather > Eupen > Past weeks

Flag for Belgium Past Weather in Eupen, Belgium — Yesterday and Last 2 Weeks

Now
57 °F

Low clouds.


Feels Like: 56 °F
Forecast: 53 / 64 °F
Wind: 6 mph from Southwest

Location: Spa / La Sauveniere

Current Time: Jun 27, 2016 at 3:06:12 PM

Latest Report: Jun 27, 2016 at 2:00 PM


Visibility: 7 mi

Pressure: 30.10 "Hg

Humidity: 90%

Dew Point: 54 °F

Location of EupenLocation

Past Weather in Eupen — Graph

°F

Eupen Temperature Yesterday

Maximum temperature yesterday: 62 °F (at 4:00 PM)
Minimum temperature yesterday: 49 °F (at 6:00 AM)
Average temperature yesterday: 54 °F

High & Low Weather Summary for the Past Weeks

 TemperatureHumidityPressure
High86 °F (Jun 23, 5:00 PM)96% (Jun 24, 8:00 AM)30.30 "Hg (Jun 24, 8:00 AM)
Low47 °F (Jun 16, 6:00 AM)45% (Jun 23, 6:00 PM)29.50 "Hg (Jun 14, 3:00 PM)
Average57 °F84%29.93 "Hg
* Reported Jun 12 2:00 PM — Jun 27 2:00 PM, Eupen, Weather by CustomWeather, © 2016

Note: Actual official high and low records may vary slightly from our data, if they occured in-between our weather recording intervals... More about our weather records

Advertising

Eupen Weather History for the Previous 24 Hours

Scroll right to see more
 ConditionsComfort  
Time TempWeatherWind HumidityBarometerVisibility
2:00 PM
Mon, Jun 27
57 °FLow clouds.6 mph90%30.10 "Hg7 mi
1:00 PM57 °FLow clouds.6 mph86%30.10 "Hg17 mi
12:00 PM56 °FFog.3 mph91%30.11 "Hg2 mi
11:00 AM56 °FScattered clouds.3 mph84%30.11 "Hg19 mi
10:00 AM55 °FOvercast.5 mph83%30.10 "Hg25 mi
9:00 AM53 °FPartly sunny.5 mph84%30.11 "Hg22 mi
8:00 AM52 °FOvercast.5 mph83%30.11 "Hg25 mi
7:00 AM51 °FPartly sunny.3 mph85%30.12 "Hg25 mi
6:00 AM49 °FScattered clouds.3 mph89%30.13 "Hg19 mi
5:00 AM50 °FClear.3 mph87%30.14 "Hg25 mi
4:00 AM50 °FClear.3 mph89%30.13 "Hg19 mi
3:00 AM51 °FPassing clouds.3 mph89%30.13 "Hg22 mi
2:00 AM51 °FPassing clouds.3 mph91%30.14 "Hg25 mi
1:00 AM53 °FPassing clouds.2 mph85%30.13 "Hg28 mi
12:00 AM52 °FPassing clouds.3 mph84%30.13 "Hg28 mi
11:00 PM
Sun, Jun 26
51 °FPassing clouds.3 mph86%30.13 "Hg28 mi
10:00 PM52 °FPassing clouds.3 mph80%30.12 "Hg28 mi
9:00 PM54 °FSunny.3 mph78%30.10 "Hg25 mi
8:00 PM55 °FScattered clouds.5 mph82%30.09 "Hg28 mi
7:00 PM56 °FPartly sunny.3 mph80%30.09 "Hg25 mi
6:00 PM57 °FSunny.5 mph84%30.09 "Hg22 mi
5:00 PM51 °FRain. Partly sunny.2 mph91%30.11 "Hg4 mi
4:00 PM62 °FPartly sunny.5 mph58%30.05 "Hg22 mi
3:00 PM61 °FPartly sunny.6 mph64%30.06 "Hg19 mi
Weather by CustomWeather, © 2016

See weather overviewHow to use our weather pages